Location: Amsterdam
(30.7274°N, 84.4357°W)
Time: 13:14:19
(UTC+00:00)

Transit 2A Rocket - Pass Details

Date: 24 February 2026
Orbit: 583 x 900 km, 66.7° (Epoch: 11 March)

Event Time Altitude Azimuth Distance (km) Brightness Sun altitude
Rises 04:38:58 0° 347° (NNW) 3,283 - -62.9°
Reaches altitude 10° 04:41:54 10° 1° (N) 2,292 - -63.3°
Maximum altitude 04:46:09 25° 56° (NE) 1,425 - -63.9°
Drops below altitude 10° 04:50:07 10° 111° (ESE) 2,111 - -64.4°
Sets 04:52:40 0° 125° (SE) 2,968 - -64.8°
